User: anonymous   Login
Location: Unspecified
(0.0000°N, 0.0000°E)
Time: 22:25:23
(UTC+00:00)
Language:

Tiangong 1 - Orbit

View from above orbital plane
View from above orbital plane
View from above satellite
View from above satellite

Ground track
Ground track

The orbit data is extracted from the following two-line orbital elements,

1 37820U 11053A   15088.34188532  .00068874  00000-0  45499-3 0  9993
2 37820 042.7686 031.8923 0011375 282.9602 216.1454 15.74579771200836
Epoch (UTC): 29 March 2015 08:12:18
Eccentricity: 0.0011375
inclination: 42.7686°
perigee height: 338 km
apogee height: 353 km
right ascension of ascending node: 31.8923°
argument of perigee: 282.9602°
revolutions per day: 15.74579771
mean anomaly at epoch: 216.1454°
orbit number at epoch: 20083

The dashed part of the orbit path shows where the satellite is in the earth's shadow,  

DLR